Weather in Dhamar

Yemen     14°32′24″N   44°24′06″E
temp.,
°C
wind,
m/s
gust,
m/s
humid.,
%
clouds,
%
prec.,
mm/h
press.,
hPa
HPBL,
m
7 may, fri
fri700:00+13ese4782100 5.0 1019394
03:00+13ese478694 8.8 1018303
06:00+14e117095 0.1 101884
09:00+16ne235997 0.1 1019390
12:00+19ene444678 0.1 10171858
15:00+19e4441100 0.1 10151576
18:00+18ne4542100 0.0 1016729
21:00+17e4639100 0.0 1017184
8 may, sat
sat800:00+17ene224384 0.0 101736
03:00+17ene234498 0.0 101550
06:00+15ene3342100 0.0 101831
09:00+19ene6841100 0.0 10181541
12:00+21ene7633100 0.0 10152156
15:00+22ene652888 0.0 10122576
18:00+21ne783421 0.0 10131222
21:00+19ene694593 0.0 1016476
9 may, sun
sun900:00+17ese355874 0.3 1016102
03:00+16w1164100 0.3 101412
06:00+15w11715 0.0 101611
09:00+19e34405 0.0 10161279
12:00+22e553398 0.0 10142688
15:00+21ene5631100 0.0 10122436
18:00+20ene81031100 0.0 1013476
21:00+18ene61132100 0.0 1015347
10 may, mon
mon1000:00+17sse2353100 0.0 101555
03:00+16sw116380 0.0 101511
06:00+15w116579 0.0 101711
09:00+20e453097 0.0 10161815
12:00+22e562518 0.0 10152350
15:00+23e542169 0.0 10122952
18:00+22ene662476 0.0 10121638
21:00+19ene4832100 0.0 1015358
11 may, tue
tue1100:00+17ssw2255100 0.0 101646
03:00+16w116883 0.0 101519
06:00+15wnw0168100 0.0 101611
09:00+20e363298 0.0 10161703
12:00+23e662685 0.0 10142501
15:00+23e5524100 0.0 10122812
18:00+22e7826100 0.1 10122135
21:00+19ssw2256100 0.1 1016221